• In Uzbekistan
  • List of Countries
  • For 7 days
  • Water Temperature
  • Satellite Maps
  • Weather Map
  • Weather Widgets
  • user-avatar
    Login

    Hourly Weather Adamovo

    Today, 24 June, Monday

    Time Temperature Precipitation Wind Pressure Humidity
    00:00 +14°C° 0 mm 2 mps 752 mmHg 82%
    01:00 +13°C° 0 mm 2 mps 753 mmHg 82%
    02:00 +13°C° 0 mm 2 mps 753 mmHg 84%
    03:00 +13°C° 0 mm 2 mps 753 mmHg 84%
    04:00 +13°C° 0 mm 2 mps 753 mmHg 83%
    05:00 +12°C° 0 mm 2 mps 753 mmHg 83%
    06:00 +14°C° 0 mm 2 mps 753 mmHg 79%
    07:00 +16°C° 0 mm 2 mps 754 mmHg 76%
    08:00 +18°C° 0 mm 3 mps 754 mmHg 72%
    09:00 +19°C° 0 mm 3 mps 754 mmHg 68%
    10:00 +21°C° 0 mm 3 mps 754 mmHg 63%
    11:00 +22°C° 0 mm 3 mps 754 mmHg 59%
    12:00 +24°C° 0 mm 3 mps 755 mmHg 57%
    13:00 +24°C° 0 mm 3 mps 755 mmHg 56%
    14:00 +25°C° 0 mm 3 mps 755 mmHg 54%
    15:00 +25°C° 0 mm 3 mps 755 mmHg 56%
    16:00 +25°C° 0 mm 3 mps 755 mmHg 57%
    17:00 +25°C° 0 mm 3 mps 755 mmHg 59%
    18:00 +23°C° 0 mm 2 mps 755 mmHg 65%
    19:00 +20°C° 0 mm 2 mps 755 mmHg 71%
    20:00 +19°C° 0 mm 2 mps 756 mmHg 77%
    21:00 +18°C° 0 mm 2 mps 756 mmHg 78%
    22:00 +16°C° 0 mm 2 mps 756 mmHg 79%
    23:00 +15°C° 0 mm 2 mps 756 mmHg 80%

    Tomorrow, 25 June, Tuesday

    Time Temperature Precipitation Wind Pressure Humidity
    00:00 +15°C° 0 mm 2 mps 756 mmHg 82%
    01:00 +14°C° 0 mm 2 mps 757 mmHg 84%
    02:00 +13°C° 0 mm 1 mps 757 mmHg 86%
    03:00 +13°C° 0 mm 2 mps 757 mmHg 84%
    04:00 +13°C° 0 mm 2 mps 757 mmHg 83%
    05:00 +13°C° 0 mm 2 mps 757 mmHg 82%
    06:00 +15°C° 0 mm 2 mps 757 mmHg 77%
    07:00 +17°C° 0 mm 2 mps 757 mmHg 72%
    08:00 +19°C° 0 mm 2 mps 758 mmHg 67%
    09:00 +20°C° 0 mm 2 mps 758 mmHg 62%
    10:00 +21°C° 0 mm 2 mps 758 mmHg 58%
    11:00 +24°C° 0 mm 2 mps 758 mmHg 53%
    12:00 +24°C° 0 mm 2 mps 758 mmHg 52%
    13:00 +25°C° 0 mm 1 mps 758 mmHg 51%
    14:00 +25°C° 0 mm 1 mps 757 mmHg 49%
    15:00 +25°C° 0 mm 1 mps 757 mmHg 51%
    16:00 +25°C° 0 mm 1 mps 757 mmHg 53%
    17:00 +25°C° 0 mm 1 mps 756 mmHg 56%
    18:00 +23°C° 0 mm 1 mps 756 mmHg 61%
    19:00 +22°C° 0 mm 1 mps 756 mmHg 67%
    20:00 +20°C° 0 mm 1 mps 756 mmHg 72%
    21:00 +19°C° 0 mm 1 mps 756 mmHg 75%
    22:00 +18°C° 0 mm 1 mps 756 mmHg 77%
    23:00 +16°C° 0 mm 1 mps 756 mmHg 79%

    Day after tomorrow, 26 June, Wednesday

    Time Temperature Precipitation Wind Pressure Humidity
    00:00 +16°C° 0 mm 1 mps 756 mmHg 82%
    01:00 +15°C° 0 mm 1 mps 756 mmHg 85%
    02:00 +15°C° 0 mm 1 mps 756 mmHg 88%
    03:00 +15°C° 0 mm 1 mps 756 mmHg 88%
    04:00 +15°C° 0 mm 1 mps 755 mmHg 88%
    05:00 +15°C° 0 mm 1 mps 755 mmHg 88%
    06:00 +16°C° 0 mm 1 mps 755 mmHg 83%
    07:00 +18°C° 0 mm 2 mps 755 mmHg 79%
    08:00 +20°C° 0 mm 2 mps 755 mmHg 75%
    09:00 +21°C° 0 mm 2 mps 754 mmHg 71%
    10:00 +24°C° 0 mm 2 mps 754 mmHg 66%
    11:00 +25°C° 0 mm 2 mps 754 mmHg 62%
    12:00 +25°C° 0 mm 2 mps 753 mmHg 61%
    13:00 +26°C° 0 mm 3 mps 753 mmHg 60%
    14:00 +26°C° 0 mm 3 mps 753 mmHg 58%
    15:00 +26°C° 0 mm 3 mps 752 mmHg 61%
    16:00 +26°C° 0 mm 3 mps 752 mmHg 64%
    17:00 +26°C° 0 mm 3 mps 751 mmHg 67%
    18:00 +25°C° 0 mm 2 mps 750 mmHg 72%
    19:00 +24°C° 0 mm 2 mps 750 mmHg 77%
    20:00 +21°C° 0 mm 2 mps 749 mmHg 81%
    21:00 +20°C° 0 mm 2 mps 749 mmHg 85%
    22:00 +19°C° 0 mm 2 mps 748 mmHg 89%
    23:00 +18°C° 0 mm 3 mps 748 mmHg 92%

    27 June, Thursday

    Time Temperature Precipitation Wind Pressure Humidity
    00:00 +18°C° 0 mm 3 mps 747 mmHg 92%
    01:00 +18°C° 0 mm 3 mps 746 mmHg 91%
    02:00 +18°C° 0 mm 3 mps 746 mmHg 91%
    03:00 +18°C° 0.2 mm 3 mps 745 mmHg 89%
    04:00 +18°C° 0.2 mm 4 mps 744 mmHg 88%
    05:00 +19°C° 0.2 mm 4 mps 743 mmHg 87%
    06:00 +19°C° 1 mm 5 mps 742 mmHg 89%
    07:00 +20°C° 1 mm 5 mps 742 mmHg 91%
    08:00 +21°C° 1 mm 6 mps 741 mmHg 93%
    09:00 +22°C° 0.4 mm 6 mps 741 mmHg 91%
    10:00 +23°C° 0.4 mm 6 mps 741 mmHg 88%
    11:00 +23°C° 0.4 mm 6 mps 740 mmHg 85%
    12:00 +23°C° 0.7 mm 6 mps 740 mmHg 84%
    13:00 +23°C° 0.7 mm 7 mps 740 mmHg 82%
    14:00 +24°C° 0.7 mm 7 mps 740 mmHg 81%
    15:00 +23°C° 0.3 mm 7 mps 740 mmHg 78%
    16:00 +22°C° 0.3 mm 7 mps 740 mmHg 76%
    17:00 +21°C° 0.3 mm 8 mps 741 mmHg 74%
    18:00 +20°C° 0 mm 7 mps 741 mmHg 74%
    19:00 +17°C° 0 mm 6 mps 741 mmHg 75%
    20:00 +16°C° 0 mm 5 mps 742 mmHg 76%
    21:00 +15°C° 0 mm 5 mps 742 mmHg 74%
    22:00 +14°C° 0 mm 5 mps 742 mmHg 72%
    23:00 +13°C° 0 mm 5 mps 743 mmHg 70%

    28 June, Friday

    Time Temperature Precipitation Wind Pressure Humidity
    00:00 +12°C° 0 mm 5 mps 743 mmHg 73%
    01:00 +10°C° 0 mm 5 mps 743 mmHg 76%
    02:00 +10°C° 0 mm 5 mps 743 mmHg 79%
    03:00 +10°C° 0 mm 5 mps 743 mmHg 79%
    04:00 +9°C° 0 mm 5 mps 743 mmHg 79%
    05:00 +9°C° 0 mm 5 mps 743 mmHg 79%
    06:00 +12°C° 0 mm 5 mps 743 mmHg 75%
    07:00 +13°C° 0 mm 6 mps 743 mmHg 71%
    08:00 +14°C° 0 mm 6 mps 743 mmHg 68%
    09:00 +15°C° 0.1 mm 6 mps 743 mmHg 67%
    10:00 +16°C° 0.1 mm 6 mps 743 mmHg 66%
    11:00 +17°C° 0.1 mm 6 mps 742 mmHg 66%
    12:00 +16°C° 0.4 mm 6 mps 742 mmHg 70%
    13:00 +16°C° 0.4 mm 6 mps 741 mmHg 75%
    14:00 +16°C° 0.4 mm 6 mps 741 mmHg 79%
    15:00 +16°C° 0.6 mm 6 mps 741 mmHg 79%
    16:00 +16°C° 0.6 mm 6 mps 741 mmHg 78%
    17:00 +16°C° 0.6 mm 6 mps 741 mmHg 78%
    18:00 +15°C° 0.2 mm 6 mps 741 mmHg 80%
    19:00 +13°C° 0.2 mm 5 mps 741 mmHg 83%
    20:00 +12°C° 0.2 mm 5 mps 741 mmHg 86%
    21:00 +10°C° 0 mm 5 mps 742 mmHg 86%
    22:00 +9°C° 0 mm 5 mps 742 mmHg 86%
    23:00 +8°C° 0 mm 5 mps 742 mmHg 86%

    29 June, Saturday

    Time Temperature Precipitation Wind Pressure Humidity
    00:00 +8°C° 0 mm 5 mps 742 mmHg 84%
    01:00 +7°C° 0 mm 5 mps 742 mmHg 82%
    02:00 +7°C° 0 mm 5 mps 742 mmHg 80%
    03:00 +7°C° 0 mm 6 mps 742 mmHg 79%
    04:00 +7°C° 0 mm 6 mps 742 mmHg 79%
    05:00 +8°C° 0 mm 7 mps 742 mmHg 79%
    06:00 +9°C° 0 mm 7 mps 742 mmHg 73%
    07:00 +10°C° 0 mm 8 mps 742 mmHg 68%
    08:00 +11°C° 0 mm 8 mps 743 mmHg 62%
    09:00 +12°C° 0 mm 9 mps 743 mmHg 59%
    10:00 +13°C° 0 mm 9 mps 743 mmHg 56%
    11:00 +15°C° 0 mm 9 mps 743 mmHg 53%
    12:00 +15°C° 0.1 mm 9 mps 743 mmHg 54%
    13:00 +15°C° 0.1 mm 9 mps 742 mmHg 55%
    14:00 +15°C° 0.1 mm 9 mps 742 mmHg 56%
    15:00 +15°C° 0.1 mm 8 mps 742 mmHg 56%
    16:00 +15°C° 0.1 mm 8 mps 742 mmHg 57%
    17:00 +16°C° 0.1 mm 7 mps 742 mmHg 58%
    18:00 +14°C° 0.1 mm 6 mps 742 mmHg 62%
    19:00 +13°C° 0.1 mm 5 mps 743 mmHg 66%
    20:00 +12°C° 0.1 mm 4 mps 743 mmHg 70%
    21:00 +11°C° 0 mm 4 mps 743 mmHg 70%
    22:00 +10°C° 0 mm 4 mps 744 mmHg 70%
    23:00 +8°C° 0 mm 4 mps 744 mmHg 70%
    Show more